Change the Weather History Date:

Saturday, September 7, 2013

  Actual Average Record
Temperature  
Mean Temperature 64 °F -  
Max Temperature 80 °F 77 °F 96 °F (1985)
Min Temperature 48 °F 59 °F 46 °F (1976)
Degree Days  
Heating Degree Days 1    
Growing Degree Days 14 (Base 50)    
Moisture  
Dew Point 50 °F    
Average Humidity 63    
Maximum Humidity 89    
Minimum Humidity 36    
Precipitation  
Precipitation 0.00 in - - ()
Sea Level Pressure  
Sea Level Pressure 30.05 in    
Wind  
Wind Speed 2 mph (SW)    
Max Wind Speed 9 mph    
Max Gust Speed -    
Visibility 10 miles    
Events      
Averages and records for this station are not official NWS values.
T = Trace of Precipitation, MM = Missing Value Source: NWS Daily Summary

Daily Weather History Graph

Daily Weather History Graph

Search for Another Location

Airport or City:

Trip Planner

Search our weather history database for the weather conditions in past years. The results will help you decide how hot, cold, wet, or windy it might be!

Date:

Astronomy

Sep. 07, 2013 Rise Set
Actual Time 6:40 AM EDT 7:29 PM EDT
Civil Twilight 6:13 AM EDT 7:56 PM EDT
Nautical Twilight 5:40 AM EDT 8:29 PM EDT
Astronomical Twilight 5:06 AM EDT 9:02 PM EDT
Moon 8:53 AM EDT (9/7) 8:25 PM EDT (9/7)
Length of Visible Light 13h 43m
Length of Day
12h 48m
Waxing Crescent, 5% of the Moon is Illuminated
Sep 7
Waxing Crescent
Sep 12
First Quarter
Sep 19
Full
Sep 26
Last Quarter
Oct 4
New

Hourly Weather History & Observations

Time (EDT) Temp. Heat Index Dew Point Humidity Pressure Visibility Wind Dir Wind Speed Gust Speed Precip Events Conditions
12:56 AM 51.1 °F - 45.0 °F 80% 30.16 in 10.0 mi Calm Calm - N/A   Clear
1:56 AM 48.9 °F - 44.1 °F 83% 30.15 in 10.0 mi SW 4.6 mph - N/A   Clear
2:56 AM 48.9 °F - 45.0 °F 86% 30.15 in 10.0 mi Calm Calm - N/A   Clear
3:56 AM 50.0 °F - 45.0 °F 83% 30.14 in 10.0 mi SW 3.5 mph - N/A   Clear
4:56 AM 48.9 °F - 44.1 °F 83% 30.14 in 10.0 mi WSW 3.5 mph - N/A   Clear
5:56 AM 48.0 °F - 44.1 °F 86% 30.14 in 10.0 mi WSW 3.5 mph - N/A   Clear
6:56 AM 48.0 °F - 45.0 °F 89% 30.14 in 10.0 mi Calm Calm - N/A   Clear
7:56 AM 52.0 °F - 46.9 °F 83% 30.14 in 10.0 mi Calm Calm - N/A   Clear
8:56 AM 57.9 °F - 50.0 °F 75% 30.12 in 10.0 mi Calm Calm - N/A   Clear
9:56 AM 64.0 °F - 48.9 °F 58% 30.12 in 10.0 mi Calm Calm - N/A   Clear
10:56 AM 68.0 °F - 51.1 °F 55% 30.12 in 10.0 mi Calm Calm - N/A   Clear
11:56 AM 72.0 °F - 51.1 °F 48% 30.09 in 10.0 mi NE 4.6 mph - N/A   Clear
12:56 PM 75.9 °F - 51.1 °F 42% 30.05 in 10.0 mi ENE 6.9 mph - N/A   Clear
1:56 PM 77.0 °F - 48.0 °F 36% 30.03 in 10.0 mi Calm Calm - N/A   Clear
2:56 PM 77.0 °F - 51.1 °F 40% 30.00 in 10.0 mi SSW 6.9 mph - N/A   Clear
3:56 PM 79.0 °F - 52.0 °F 39% 29.97 in 10.0 mi SW 9.2 mph - N/A   Clear
4:56 PM 79.0 °F - 53.1 °F 40% 29.96 in 10.0 mi WSW 6.9 mph - N/A   Clear
5:56 PM 80.1 °F 79.9 °F 53.1 °F 39% 29.95 in 10.0 mi West 8.1 mph - N/A   Clear
6:56 PM 75.9 °F - 54.0 °F 46% 29.94 in 10.0 mi SSW 5.8 mph - N/A   Clear
7:56 PM 70.0 °F - 57.0 °F 63% 29.94 in 10.0 mi Calm Calm - N/A   Clear
8:56 PM 71.1 °F - 55.9 °F 59% 29.94 in 10.0 mi Calm Calm - N/A   Partly Cloudy
9:56 PM 66.9 °F - 55.9 °F 68% 29.94 in 10.0 mi West 6.9 mph - N/A   Partly Cloudy
10:56 PM 69.1 °F - 54.0 °F 58% 29.94 in 10.0 mi Calm Calm - N/A   Scattered Clouds
11:56 PM 66.9 °F - 55.9 °F 68% 29.94 in 10.0 mi Calm Calm - N/A   Overcast